Starlink 30114

operational
NORAD ID: 56826 Int'l Des: 2023-079 Owner: SPXS Country: US Constellation: starlink
LEOCIRCULAR

Über Starlink 30114

Beschreibung wird geladen...

Live-Position

3D-Globus wird geladen...

Nächste Überflüge

Höhenverlauf

Altitude vs Time

uPlot chart will show altitude changes over time

Zweizeiliger Elementsatz

1 56826U 23079D 25353.53336894 -.00000877 00000-0 -49895-4 0 9990
2 56826 43.0019 183.0037 0001019 265.3656 94.7070 15.02535437141145
Epoch: 19. Dez. 2025 • Age: 12 hours

Aktueller Status

Höhe 563.8 km
Geschwindigkeit 7.58 km/s
Subsatellitenpunkt -21.99°S, 76.8°W
Startdatum 4. Juni 2023
Alter 2.5 years
Typ internet

Technische Details

Klassifizierung Payload
Masse 730.00 kg
Trockenmasse 700.00 kg
Gesamtmasse 730.00 kg
Länge 0.30 m
Durchmesser 4.10 m
Spannweite 29.00 m
Form Box + pan
Hersteller SPXS
Bus-Typ Starlink V2M
Phasenstatus In Orbit
Besitzer/Staat SPXS/US

Große Konstellationen

Loading constellations...